Location: Krasnoyarskiy Pitomnik
(51.1333°N, 71.6167°E)
Time: 09:25:21
(UTC+00:00)

Altair - Pass Details

Date: 14 April 2024
Orbit: 1501 x 1682 km, 47.2° (Epoch: 17 May)

Event Time Altitude Azimuth Distance (km) Brightness Sun altitude
Rises 18:05:51 0° 259° (W) 4,864 10.2 -27.3°
Reaches altitude 10° 18:09:02 10° 257° (WSW) 3,855 9.6 -27.5°
Maximum altitude 18:18:45 71° 177° (S) 1,656 7.3 -27.9°
Drops below altitude 10° 18:28:06 10° 96° (E) 3,715 9.3 -28.3°
Sets 18:31:06 0° 94° (E) 4,679 9.9 -28.4°
